PDT,Max TemperatureF,Mean TemperatureF,Min TemperatureF,Max Dew PointF,MeanDew PointF,Min DewpointF,Max Humidity, Mean Humidity, Min Humidity, Max Sea Level PressureIn, Mean Sea Level PressureIn, Min Sea Level PressureIn, Max VisibilityMiles, Mean VisibilityMiles, Min VisibilityMiles, Max Wind SpeedMPH, Mean Wind SpeedMPH, Max Gust SpeedMPH,PrecipitationIn, CloudCover, Events, WindDirDegrees
2014-3-1,43,36,30,37,21,17,82,56,43,29.98,29.87,29.62,10,10,7,16,10,,0.00,8,,94
2014-3-2,32,30,28,28,24,18,89,79,61,29.99,29.92,29.86,10,7,2,13,8,,0.22,8,Rain-Snow,83
2014-3-3,45,36,27,39,33,24,100,91,80,29.96,29.88,29.81,10,7,2,6,1,,0.12,5,Rain,282
2014-3-4,61,48,35,46,40,34,100,86,56,30.03,29.98,29.91,10,6,0,17,3,25,0.00,3,Fog,315
2014-3-5,52,48,43,50,47,43,100,96,89,29.87,29.67,29.52,10,5,1,12,3,16,0.70,8,Rain,312
2014-3-6,57,50,42,46,42,39,93,73,49,30.12,29.81,29.61,10,10,6,25,8,33,0.09,5,Rain,310
2014-3-7,61,52,42,44,42,39,89,72,48,30.29,30.22,30.13,10,10,10,16,9,,0.00,3,,296
2014-3-8,52,44,35,46,40,34,100,89,68,30.19,30.04,29.87,10,9,2,6,1,,0.12,4,Rain,331
2014-3-9,63,54,46,52,48,46,97,80,58,29.98,29.94,29.90,10,10,7,21,5,31,0.10,5,Rain,321
2014-3-10,57,49,42,48,41,35,97,71,53,30.40,30.13,29.93,10,10,10,29,12,36,0.01,3,Rain,296
2014-3-11,62,50,39,37,33,28,77,59,29,30.58,30.50,30.43,10,10,10,13,7,,0.00,0,,355
2014-3-12,64,46,28,37,32,27,92,65,31,30.48,30.31,30.13,10,10,10,6,1,,0.00,0,,320
2014-3-13,66,50,34,39,35,30,92,61,31,30.14,30.08,30.00,10,10,10,21,5,32,0.00,1,,295
2014-3-14,64,54,46,46,39,33,86,58,33,30.30,30.11,30.00,10,10,10,30,8,37,0.00,3,,290
2014-3-15,66,52,39,48,38,34,86,62,35,30.37,30.30,30.21,10,10,10,18,5,28,0.00,2,,308
2014-3-16,64,54,45,47,42,35,86,65,35,30.24,30.07,29.87,10,10,10,24,12,29,0.01,2,Rain,312
2014-3-17,54,48,43,35,31,26,68,55,35,30.31,30.19,29.95,10,10,10,33,20,41,0.00,2,,294
2014-3-18,60,46,32,36,32,27,82,60,38,30.35,30.26,30.17,10,10,10,15,6,,0.00,1,,74
2014-3-19,60,46,33,41,35,29,89,70,44,30.21,30.11,30.03,10,10,5,30,10,36,0.01,2,Rain,289
2014-3-20,55,47,39,33,29,26,73,55,34,30.34,30.30,30.22,10,10,10,21,11,24,0.00,1,,298
2014-3-21,57,42,30,33,27,18,92,60,23,30.33,30.28,30.21,10,10,10,6,2,,0.00,0,,87
2014-3-22,62,44,26,29,24,19,78,53,19,30.38,30.28,30.16,10,10,10,7,2,,0.00,0,,113
2014-3-23,64,50,35,37,31,25,82,51,30,30.30,30.23,30.16,10,10,10,8,4,,0.00,0,,287
2014-3-24,68,49,32,35,32,28,85,57,25,30.25,30.14,29.95,10,10,10,8,4,,0.00,0,,92
2014-3-25,59,49,39,47,39,32,83,69,49,29.93,29.75,29.65,10,10,8,22,6,39,0.03,4,Rain,9
2014-3-26,55,46,39,43,40,36,93,81,64,29.67,29.61,29.54,10,10,10,20,3,25,0.05,5,,321
2014-3-27,60,50,41,42,40,38,96,76,48,29.94,29.76,29.62,10,10,9,22,6,33,0.05,5,Rain,317
2014-3-28,55,48,43,48,44,38,100,91,77,29.94,29.85,29.78,10,7,2,12,4,,0.44,7,Rain,15
2014-3-29,61,49,39,45,41,38,100,83,48,29.89,29.83,29.79,10,8,0,31,4,40,0.01,5,Fog-Rain,319
2014-3-30,55,44,34,39,36,33,96,70,47,30.00,29.95,29.89,10,10,10,18,7,28,0.00,1,,317
2014-3-31,62,46,32,42,35,29,92,71,36,30.00,29.85,29.67,10,10,10,17,4,,0.01,3,Rain,89